SCP
0 0 0 0 0 0 0 0 0 0 0 0 0 0 0 0 0 0 0 0 0 0 0 0 0 0 1 1 1 0 0 0 0 0 0 0 0 0
0 0 0 0 0 0 0 0 0 0 0 0 0 0 0 0 0 0 0 0 0 0 0 0 0 0 0 0 0 0 0 0 0 0 0 0 0 0
0 0 0 0 0 0 0 0 0 0 0 0 0 0 0 0 0 0 0 0 0 0 0 0 0 0 0 0 0 0 0 0 0 0 0 0 0 0
0 0 0 0 0 0 0 0 0 0 0 0 0 0 0 0 0 0 0 0 0 0 0 0 0 0 0 0 0 0 0 0 0 0 0 0 0 0
0 0 0 0 0 0 0 0 0 0 0 0 0 0 0 0 0 0 0 0 0 0 0 0 0 0 0 0 0 0 0 0 0 0 0 0 0 0
0 0 0 0 0 0 0 0 0 0 0 0 0 0 0 0 0 0 0 0 0 0 0 0 0 0 0 0 0 0 0 0 0 0 0 0 0 0
0 0 0 0 0 0 0 0 0 0 0 0 0 0 0 0 0 0 0 0 0 0 0 0 0 0 0 0 0 0 0 0 0 0 0 0 0 0
0 0 0 0 0 0 0 0 0 0 0 0 0 0 0 0 0 0 0 0 0 0 0 0 0 0 0 0 0 0 0 0 0 0 0 0 0 0
0 0 0 0 0 0 0 0 0 0 0 0 0 0 0 0 0 0 0 0 0 0 0 0 0 0 0 0 0 0 0 0 0 0 0 0 0 0
0 0 0 0 0 0 0 0 0 0 0 0 0 0 0 0 0 0 0 0 0 0 0 0 0 0 0 0 0 0 0 0 0 0 0 0 0 0
0 0 0 0 0 0 0 0 0 0 0 0 0 0 0 0 0 0 0 0 0 0 0 0 0 0 0 0 0 0 0 0 0 0 0 0 0 0
0 0 0 0 0 0 0 0 0 0 0 0 0 0 0 0 0 0 0 0 0 0 0 0 0 0 0 0 0 0 0 0 0 0 0 0 0 0
0 0 0 0 0 0 0 0 0 0 0 0 0 0 0 0 0 0 0 0 0 0 0 0 0 0 0 0 0 0 0 0 0 0 0 0 0 0
0 0 0 0 0 0 0 0 0 0 0 0 0 0 0 0 0 0 0 0 0 0 0 0 0 0 0 0 0 0 0 0 0 0 0 0 0 0
0 0 0 0 0 0 0 0 0 0 0 0 0 0 0 0 0 0 0 0 0 0 0 0 0 0 0 0 0 0 0 0 0 0 0 0 0 0
0 0 0 0 0 0 0 0 0 0 0 0 0 0 0 0 0 0 0 0 0 0 0 0 0 0 0 0 0 0 0 0 0 0 0 0 0 0
0 0 0 0 0 0 0 0 0 0 0 0 0 0 0 0 0 0 0 0 0 0 0 0 0 0 0 0 0 0 0 0 0 0 0 0 0 0
0 0 0 0 0 0 0 0 0 0 0 0 0 0 0 0 0 0 0 0 0 0 0 0 0 0 0 0 0 0 0 0 0 0 0 0 0 0
0 0 0 0 0 0 0 0 0 0 0 0 0 0 0 0 0 0 0 0 0 0 0 0 0 0 0 0 0 0 0 0 0 0 0 0 0 0
0 0 0 0 0 0 0 0 0 0 0 0 0 0 0 0 0 0 0 0 0 0 0 0 0 0 0 0 0 0 0 0 0 0 0 0 0 0
0 0 0 0 0 0 0 0 0 0 0 0 0 0 0 0 0 0 0 0 0 0 0 0 0 0 0 0 0 0 0 0 0 0 0 0 0 0
0 0 0 0 0 0 0 0 0 0 0 0 0 0 0 0 0 0 0 0 0 0 0 0 0 0 0 0 0 0 0 0 0 0 0 0 0 0
0 0 0 0 0 0 0 0 0 0 0 0 0 0 0 0 0 0 0 0 0 0 0 0 0 0 0 0 0 0 0 0 0 0 0 0 0 0
Wind_Speed
3 3 2 3 3 3 3 3 3 3 3 3 3 3 3 4 7 7 7 13 17 18 18 18 18 17 17 17 16 16 15 15 14 14 15 15 15 14
2 3 3 2 3 3 3 3 4 4 4 3 3 2 2 3 6 6 8 12 16 17 18 18 18 18 17 17 16 15 15 14 15 15 15 14 14 13
3 3 4 3 3 3 3 3 4 4 5 4 3 2 3 4 3 4 5 6 8 16 17 18 18 18 18 17 17 16 15 15 15 16 16 15 15 14
4 4 4 3 3 3 2 3 3 4 5 5 3 3 4 4 4 5 5 6 6 12 17 18 18 18 17 17 17 17 16 16 16 16 16 17 17 16
4 4 4 3 3 3 3 3 3 3 4 4 4 3 3 3 3 4 4 4 6 8 13 16 17 17 17 17 17 17 17 17 16 16 16 17 16 16
4 4 4 4 4 4 3 3 3 3 3 3 3 3 3 2 3 3 3 4 5 5 7 9 13 16 17 17 18 17 17 17 17 17 16 16 16 16
5 5 5 6 6 4 3 3 3 3 3 3 3 3 3 2 4 3 4 3 4 4 5 6 7 8 10 14 17 18 18 18 18 17 17 16 16 16
5 6 6 5 6 7 7 6 5 4 4 4 4 4 5 4 3 4 4 3 4 4 5 5 6 7 7 8 13 17 19 19 18 18 18 17 17 17
5 5 5 5 5 4 6 7 6 7 7 5 6 6 5 5 5 5 5 4 4 3 4 4 5 6 5 7 14 18 19 20 20 19 19 19 18 18
4 4 4 5 5 5 4 4 4 5 5 5 6 6 6 5 6 6 5 3 2 2 3 4 4 4 4 5 12 16 18 19 19 20 20 19 18 17
5 4 4 4 8 7 4 5 6 5 6 8 9 9 9 9 7 4 4 4 3 3 3 3 3 2 3 4 7 13 15 16 18 19 20 19 18 17
4 4 6 6 8 8 4 4 6 6 5 5 5 6 6 6 9 7 6 5 3 3 4 4 3 3 2 3 4 5 8 12 15 17 18 18 18 11
3 3 4 9 10 10 7 5 8 7 5 5 4 4 3 3 4 5 5 6 5 4 4 5 4 3 3 2 2 4 5 5 8 10 14 18 18 14
4 4 5 10 11 11 7 7 9 8 4 4 4 3 3 3 4 4 5 5 5 5 6 5 4 5 5 3 3 3 4 5 6 6 7 12 14 15
4 7 8 11 11 8 8 9 7 4 3 3 3 3 3 3 2 2 3 3 3 4 5 5 4 5 4 4 4 4 4 4 6 6 7 8 8 9
4 5 8 9 7 7 7 5 3 3 3 3 3 3 2 1 2 2 2 2 3 3 4 5 6 7 5 4 5 5 5 6 6 7 6 6 6 7
2 2 2 3 4 4 4 3 3 3 3 3 3 3 2 2 2 2 2 2 3 3 3 3 3 4 4 5 5 5 6 5 6 7 7 6 6 8
1 2 3 3 4 4 4 4 3 3 3 3 3 3 3 3 3 2 2 3 4 4 4 3 3 2 1 2 4 6 6 5 6 7 6 7 7 7
1 3 4 4 5 5 4 4 4 4 3 3 3 3 3 3 3 3 3 3 4 4 4 4 5 5 6 5 3 5 6 6 6 6 6 5 7 8
2 3 4 5 5 5 5 4 4 4 3 3 4 3 3 3 3 3 4 4 3 3 3 4 5 5 6 5 3 3 7 7 7 7 5 3 2 3
4 4 5 5 5 5 5 5 4 4 4 4 4 4 4 4 4 4 4 5 4 4 5 5 5 5 3 3 3 2 3 6 7 6 7 5 4 3
5 5 5 6 6 5 5 5 5 4 4 4 4 4 4 4 5 5 5 5 5 5 5 3 3 4 4 5 4 4 3 3 3 5 8 9 7 8
7 7 7 7 7 6 6 6 6 5 5 5 5 5 4 4 5 5 5 6 5 5 4 4 3 3 4 4 4 4 5 5 4 4 3 4 6 6
Wind_Direction
292 281 260 248 231 221 210 199 203 240 258 243 235 228 217 213 209 205 209 210 207 207 208 206 205 205 205 205 205 205 203 203 199 196 197 198 196 193
297 298 286 265 251 234 221 215 206 213 245 248 234 241 243 241 217 211 213 209 209 208 210 209 207 205 204 203 201 200 199 198 195 194 194 195 194 192
316 308 293 281 263 249 232 218 213 209 240 258 239 237 227 238 235 223 216 209 211 211 211 212 209 206 205 203 200 197 196 195 194 194 194 193 193 189
308 309 302 298 280 257 238 234 225 217 224 246 248 230 228 227 222 221 221 213 209 212 212 213 211 206 204 203 200 197 195 193 192 193 193 194 192 189
304 301 297 299 289 275 253 240 237 236 222 231 245 231 232 222 220 226 222 218 215 214 212 213 212 208 204 202 201 198 195 193 192 192 193 193 191 190
300 295 292 281 272 271 262 247 240 238 232 234 243 240 233 220 204 213 223 214 218 213 210 209 210 209 206 203 201 199 196 194 192 191 190 189 188 189
305 300 295 292 285 275 263 248 237 237 236 237 242 240 233 211 214 204 219 217 217 204 200 202 200 207 207 208 206 202 197 194 192 191 190 187 186 186
300 302 300 296 304 308 302 290 258 234 231 232 238 237 237 223 217 212 212 209 225 198 195 207 194 205 206 204 202 200 198 195 193 191 189 187 186 185
292 298 304 309 314 301 301 303 294 275 248 229 236 240 235 220 209 216 216 209 215 191 181 209 196 209 204 205 198 198 198 197 194 192 190 188 187 185
291 292 291 299 300 299 293 291 284 277 264 248 238 244 239 227 215 216 210 211 230 212 182 206 194 203 198 200 199 199 198 197 195 193 191 188 185 183
297 299 297 292 300 308 301 297 296 289 273 264 255 252 248 241 218 201 195 197 218 213 189 193 186 186 197 208 203 197 197 194 191 190 189 185 182 180
298 301 303 303 306 309 293 288 291 290 289 292 281 269 254 243 222 211 203 203 201 208 189 180 177 168 191 205 201 195 195 194 189 187 185 181 176 174
284 294 298 309 310 308 300 272 269 279 279 276 275 265 248 233 223 217 210 205 206 215 186 171 174 174 177 182 192 194 188 188 189 189 185 179 176 175
258 271 285 303 307 306 302 288 287 287 273 271 269 262 251 239 227 214 212 216 220 216 188 178 180 180 173 178 189 187 188 185 181 182 181 176 177 175
249 267 286 300 308 304 299 303 303 286 274 267 265 261 250 238 222 203 202 210 222 212 194 196 188 182 185 186 179 175 179 188 181 174 175 176 178 172
266 285 298 301 299 290 295 302 292 277 272 266 266 267 258 238 229 217 213 204 211 217 205 202 199 189 194 188 181 182 177 177 179 179 171 170 170 172
263 298 306 313 316 311 303 295 289 290 279 268 266 267 262 259 250 224 213 210 217 212 203 193 197 198 199 185 189 192 181 178 176 172 171 174 180 181
211 282 294 294 291 293 296 297 288 279 273 270 264 254 251 247 249 234 220 223 225 216 207 193 178 176 181 241 202 186 184 181 173 171 168 174 184 185
247 282 287 288 287 287 284 280 279 275 269 268 266 258 250 247 244 241 235 229 223 217 211 194 190 189 199 210 212 194 181 173 167 172 177 174 185 187
297 291 294 293 290 289 287 283 281 279 270 266 264 257 249 244 244 242 237 234 225 214 209 202 204 204 204 193 181 191 185 170 171 177 172 151 130 142
344 329 318 313 309 302 296 289 284 280 274 268 262 254 251 243 244 242 236 230 228 226 222 219 213 187 142 125 140 171 184 186 173 170 162 152 152 160
351 343 338 336 333 327 319 312 304 296 289 278 272 266 259 249 245 241 235 230 229 228 229 214 169 166 174 187 189 178 168 158 161 162 167 164 166 182
5 2 2 356 353 349 343 339 336 332 326 312 295 279 264 257 253 246 237 231 229 227 219 199 183 188 194 189 183 176 172 168 159 158 183 199 198 190